Tracking 28125 objects as of 4-Oct-2023
HD Live streaming from Space Station
objects crossing your sky now

THORAD AGENA D DEB

Track THORAD AGENA D DEB now!
10-day predictions


NORAD ID: 42500
Int'l Code: 1970-025RE
Perigee: 1,059.1 km
Apogee: 1,073.2 km
Inclination: 99.6 °
Period: 106.4 minutes
Semi major axis: 7437 km
RCS: Unknown
Launch date: April 8, 1970
Source: United States (US)
Launch site: AIR FORCE WESTERN TEST RANGE (AFWTR)

Note: This is SATELLITE DEBRIS
Your satellite tracking list
Your tracking list is empty




NASA's NSSDC Master Catalog

Two Line Element Set (TLE):
1 42500U 70025RE  23275.95440736  .00000146  00000-0  28003-3 0  9999
2 42500  99.5661 159.7426 0009477 205.9238 168.6012 13.53619862487163
Source of the keplerian elements: AFSPC